Location: ???? ?????
(30.0052°N, 31.2891°E)
Time: 07:27:41
(UTC+00:00)

SEDSat Delta rocket - Pass Details

Date: 09 October 2022
Orbit: 532 x 995 km, 31.4° (Epoch: 04 December)

Event Time Altitude Azimuth Distance (km) Brightness Sun altitude
Rises 18:40:15 0° 264° (W) 3,382 7.5 -41.3°
Reaches altitude 10° 18:44:16 10° 238° (WSW) 2,548 6.5 -42.1°
Enters shadow 18:44:23 10° 237° (WSW) 2,533 6.5 -42.1°
